Logan, UT

6:32 PM MST on November 20, 2019 (GMT -0700)
Logan-Cache

Weather History for KLGU - August, 2019

Change the Weather History Date:

Thursday, August 29, 2019

  Actual Average Record
Temperature  
Mean Temperature 70 °F -  
Max Temperature 90 °F 84 °F 97 °F (2017)
Min Temperature 50 °F 49 °F 34 °F (1964)
Cooling Degree Days 4    
Growing Degree Days 20 (Base 50)    
Moisture  
Dew Point 46 °F    
Average Humidity 45    
Maximum Humidity 77    
Minimum Humidity 19    
Precipitation  
Precipitation 0.09 in - - ()
Sea Level Pressure  
Sea Level Pressure 29.97 in    
Wind  
Wind Speed 5 mph ()    
Max Wind Speed 23 mph    
Max Gust Speed 31 mph    
Visibility 10.0 miles    
Events Thunderstorm    
Averages and records for this station are not official NWS values.
T = Trace of Precipitation, MM = Missing Value Source: Averaged Metar Reports

Daily Weather History Graph

Daily Weather History Graph

Search for Another Location

Airport or City:

Astronomy

Aug. 29, 2019 Rise Set
Actual Time 6:50 AM MDT 8:05 PM MDT
Civil Twilight 6:21 AM MDT 8:34 PM MDT
Nautical Twilight 5:46 AM MDT 9:09 PM MDT
Astronomical Twilight 5:10 AM MDT 9:45 PM MDT
Moon 5:38 AM MDT (8/29) 8:06 PM MDT (8/29)
Length of Visible Light 14h 13m
Length of Day
13h 15m
Waning Crescent, 1% of the Moon is Illuminated
Aug 29
Waning Crescent
Aug 30
New
Sep 5
First Quarter
Sep 13
Full
Sep 21
Last Quarter

Hourly Weather History & Observations

Time (MDT) Temp. Dew Point Humidity Pressure Visibility Wind Dir Wind Speed Gust Speed Precip Events Conditions
12:51 AM 62.1 °F 39.9 °F 44% 29.94 in 10.0 mi SE 6.9 mph - N/A   Clear
1:51 AM 57.9 °F 43.0 °F 58% 29.95 in 10.0 mi Calm Calm - N/A   Clear
2:51 AM 53.1 °F 43.0 °F 69% 29.94 in 10.0 mi WSW 3.5 mph - N/A   Clear
3:51 AM 55.0 °F 41.0 °F 59% 29.94 in 10.0 mi East 5.8 mph - N/A   Clear
4:51 AM 50.0 °F 42.1 °F 74% 29.96 in 10.0 mi Calm Calm - N/A   Clear
5:51 AM 54.0 °F 41.0 °F 62% 29.95 in 10.0 mi SSE 4.6 mph - N/A   Clear
6:51 AM 52.0 °F 45.0 °F 77% 29.99 in 10.0 mi NE 4.6 mph - N/A   Clear
7:51 AM 54.0 °F 44.1 °F 69% 29.99 in 10.0 mi Calm Calm - N/A   Clear
8:51 AM 57.0 °F 45.0 °F 64% 30.02 in 10.0 mi ESE 3.5 mph - N/A   Clear
9:51 AM 66.0 °F 43.0 °F 43% 30.01 in 10.0 mi Variable 3.5 mph - N/A   Clear
10:51 AM 70.0 °F 43.0 °F 38% 30.01 in 10.0 mi Calm Calm - N/A   Clear
11:51 AM 75.9 °F 41.0 °F 29% 30.01 in 10.0 mi Calm Calm - N/A   Clear
12:51 PM 82.9 °F 45.0 °F 26% 29.97 in 10.0 mi Variable 3.5 mph - N/A   Clear
1:51 PM 86.0 °F 44.1 °F 23% 29.96 in 10.0 mi SSW 6.9 mph - N/A   Clear
2:51 PM 87.1 °F 45.0 °F 23% 29.95 in 10.0 mi SW 5.8 mph - N/A   Clear
3:51 PM 87.1 °F 42.1 °F 21% 29.92 in 10.0 mi SSE 5.8 mph - N/A   Clear
4:51 PM 89.1 °F 42.1 °F 19% 29.90 in 10.0 mi SSW 6.9 mph - N/A   Clear
5:51 PM 88.0 °F 42.1 °F 20% 29.88 in 10.0 mi SSW 4.6 mph - N/A   Clear
6:51 PM 88.0 °F 42.1 °F 20% 29.88 in 10.0 mi Calm Calm - N/A   Clear
7:51 PM 82.0 °F 52.0 °F 35% 29.89 in 10.0 mi NNE 4.6 mph - N/A   Clear
8:21 PM 79.0 °F 52.0 °F 39% 30.03 in 10.0 mi East 4.6 mph - N/A Thunderstorm Clear
8:46 PM 75.9 °F 52.0 °F 43% 30.08 in 10.0 mi NNW 18.4 mph 24.2 mph N/A   Scattered Clouds
8:51 PM 78.1 °F 48.9 °F 36% 29.94 in 10.0 mi NNW 23.0 mph 31.1 mph N/A Thunderstorm Mostly Cloudy
9:08 PM 70.0 °F 55.0 °F 59% 30.09 in 10.0 mi North 18.4 mph 23.0 mph 0.09 in   Scattered Clouds
9:51 PM 72.0 °F 53.1 °F 51% 29.93 in 10.0 mi SE 9.2 mph - 0.09 in   Clear
10:51 PM 69.1 °F 54.0 °F 58% 29.93 in 10.0 mi SSE 10.4 mph - N/A   Clear
11:31 PM 68.0 °F 53.1 °F 59% 30.07 in 10.0 mi ESE 5.8 mph - N/A Thunderstorm Clear
11:51 PM 72.0 °F 51.1 °F 48% 29.93 in 10.0 mi SSE 12.7 mph - N/A Thunderstorm Partly Cloudy
11:59 PM 73.0 °F 50.0 °F 44% 30.09 in 10.0 mi SSE 17.3 mph 25.3 mph N/A   Partly Cloudy